This is the latest recevied weather packets stored in our database for station/object WR7DW-3. If no packets are shown the sender has not sent any weather packets the latest 10 day(s).
| Time | Temp. | Humidity | Pressure | Rain* | Wind** | Luminosity | Snow |
|---|---|---|---|---|---|---|---|
| 1777503594 | 2.78° C | 75% | 1019.2 hPa | 0 mm | - | - | - |
| 1777501795 | 2.22° C | 79% | 1019.2 hPa | 0 mm | - | - | - |
| 1777500895 | 2.78° C | 77% | 1019.2 hPa | 0 mm | - | - | - |
| 1777499995 | 3.89° C | 73% | 1019.3 hPa | 0 mm | - | - | - |
| 1777499095 | 3.89° C | 81% | 1019.1 hPa | 0 mm | - | - | - |
| 1777498195 | 2.22° C | 82% | 1019.2 hPa | 0 mm | - | - | - |
| 1777497295 | 1.67° C | 83% | 1019.2 hPa | 0 mm | - | - | - |
| 1777496398 | 1.11° C | 87% | 1019.2 hPa | 0 mm | - | - | - |
| 1777495495 | 1.67° C | 87% | 1019 hPa | 0 mm | - | - | - |
| 1777494597 | 1.11° C | 94% | 1019 hPa | 0 mm | - | - | - |
| 1777493696 | 1.11° C | 93% | 1018.9 hPa | 0 mm | - | - | - |
| 1777492795 | 1.67° C | 93% | 1019.1 hPa | 0 mm | - | - | - |
| 1777491895 | 1.11° C | 94% | 1019.1 hPa | 0 mm | - | - | - |
| 1777490995 | 1.67° C | 96% | 1019 hPa | 0.25 mm | - | - | - |
| 1777490095 | 1.67° C | 96% | 1019.1 hPa | 0.25 mm | - | - | - |
| 1777489195 | 2.22° C | 96% | 1019.1 hPa | 0.25 mm | - | - | - |
| 1777488295 | 1.67° C | 97% | 1019.3 hPa | 0.51 mm | - | - | - |
| 1777487396 | 0.56° C | 97% | 1019.5 hPa | 0.51 mm | - | - | - |
| 1777486495 | 0.56° C | 98% | 1019.5 hPa | 1.02 mm | - | - | - |
| 1777485595 | 1.67° C | 97% | 1019.2 hPa | 1.27 mm | - | - | - |
| 1777484695 | 2.22° C | 97% | 1019.1 hPa | 1.52 mm | - | - | - |
| 1777483795 | 1.67° C | 97% | 1019 hPa | 1.52 mm | - | - | - |
| 1777482895 | 1.11° C | 97% | 1018.9 hPa | 1.52 mm | - | - | - |
| 1777481995 | 1.11° C | 97% | 1018.9 hPa | 1.52 mm | - | - | - |
| 1777481097 | 1.11° C | 97% | 1018.8 hPa | 1.27 mm | - | - | - |
* Rain latest hour (hover to see other rain measurements)
** Current wind speed in m/s (hover to see current wind gust speed)